Regional Weather Roundup
Issued by NWS

Home | Current Version | Previous Version | Text Only | Print | Product List | Glossary On
Versions: 1 2 3 4 5 6 7 8 9 10 11 12 13 14 15 16 17 18 19 20 21 22 23 24 25 26 27
000
ASUS45 KBOU 171906
RWRCO

WEATHER ROUNDUP FOR COLORADO
NATIONAL WEATHER SERVICE DENVER/BOULDER CO
100 PM MDT THU APR 17 2014

NOTE: "FAIR" INDICATES FEW OR NO CLOUDS BELOW 12000 FEET WITH NO
SIGNIFICANT WEATHER AND/OR OBSTRUCTIONS TO VISIBILITY.

COZ001>005-013-030-031-172000-
...NORTHWEST COLORADO...

CITY           SKY/WX    TMP DP  RH WIND       PRES   REMARKS
CRAIG          SUNNY     54  18  24 VRB3      30.09F
HAYDEN         SUNNY     48  18  29 N9        30.13F
MEEKER         SUNNY     56  17  21 W6        30.09F
MOUNT WERNER   NOT AVBL
STEAMBOAT SPGS SUNNY     49  12  22 SE8       30.10F
WALDEN         SUNNY     46  18  31 SW14      30.11S
$$

COZ006>008-011-172000-
...WEST CENTRAL VALLEYS...

CITY           SKY/WX    TMP DP  RH WIND       PRES   REMARKS
GRAND JUNCTION SUNNY     60  23  24 NW8       30.09F
MONTROSE       SUNNY     61  21  21 VRB3      30.11F
EAGLE          MOSUNNY   55  18  22 W15G22    30.11F
RIFLE          SUNNY     59  21  23 W13       30.08F
DELTA          SUNNY     63  21  20 CALM      30.09F
NUCLA            N/A     59  23  25 SW7       30.15F
$$

COZ017>023-064>068-172000-
...SOUTHWEST COLORADO...

CITY           SKY/WX    TMP DP  RH WIND       PRES   REMARKS
DURANGO        SUNNY     58  18  21 VRB3      30.14F
CORTEZ         SUNNY     62  23  22 MISG      30.13F
PAGOSA SPRINGS SUNNY     54  19  24 S8        30.17F
TELLURIDE      SUNNY     48  16  27 W9        30.20S
WOLF CREEK PAS MOSUNNY   32  18  55 S13       30.29R WCI  22
$$

COZ009-010-012-014-032>034-037-058>063-172000-
...CENTRAL COLORADO...

CITY           SKY/WX    TMP DP  RH WIND       PRES   REMARKS
ASPEN          SUNNY     53  16  23 N10       30.11F
BUENA VISTA    SUNNY     45  31  57 SE6       30.15F
COPPER MTN     MOSUNNY   36  12  38 W16       30.22S
BERTHOUD PASS  FAIR      27  18  69 W20G32    30.22R WCI  13
COTTONWOOD PAS SUNNY     43  28  56 SE7       30.18F
GUNNISON       SUNNY     48  16  27 SW5       30.19F
KREMMLING      PTSUNNY   54  14  20 W8G18     30.12S
LEADVILLE      MOSUNNY   41  12  30 NW12      30.15F
MONARCH PASS   SUNNY     28  21  74 W25G36    30.34F WCI  14
SALIDA         SUNNY     51  30  44 SE3       30.20F
SUNLIGHT       SUNNY     41  19  42 SW3       30.23F
WILKERSON PASS MOSUNNY   32  27  80 SW7       30.23S WCI  26
$$

COZ069>075-172000-
...SAN LUIS VALLEY/SANGRE DE CRISTO MOUNTAINS...

CITY           SKY/WX    TMP DP  RH WIND       PRES   REMARKS
ALAMOSA        SUNNY     46  33  60 VRB6      30.18F
LA VETA PASS   MOSUNNY   37  32  81 SW8       30.23S
SAGUACHE       NOT AVBL
$$

COZ035-036-038>040-172000-
...NORTHERN COLORADO FRONT RANGE...

CITY           SKY/WX    TMP DP  RH WIND       PRES   REMARKS
DENVER INTL AP PTSUNNY   58  19  22 S6        30.05F
DMNS CITY PARK   N/A     60  19  20 SE3G13    30.04F
AURORA         PTSUNNY   57  18  21 S6        30.06F
FRONT RANGE AP PTSUNNY   59  19  21 CALM      30.06F
ERIE MUNI ARPT MOSUNNY   57  31  36 E6        30.05F
BOULDER MUN AP MOSUNNY   54  32  43 E5        30.05F
CENTENNIAL     PTSUNNY   57  20  23 E6G17     30.05F
BROOMFIELD     PTSUNNY   57  27  30 NE9       30.06F
FORT COLLINS   SUNNY     55  34  44 CALM      30.08F
LONGMONT       SUNNY     60  32  34 E7        30.07F
$$

COZ041-046-047-076>085-087-088-172000-
...PIKES PEAK/PALMER DIVIDE AND SOUTHERN FOOTHILLS...

CITY           SKY/WX    TMP DP  RH WIND       PRES   REMARKS
COLO. SPRINGS  PTSUNNY   46  35  65 SE14      30.15F
A. F. ACADEMY  CLOUDY    43  35  73 S13       30.14F
ELLICOTT       NOT AVBL
FALCON         CLOUDY    42  33  72 SW14      30.17F
FORT CARSON    PTSUNNY   48  36  63 SE16      30.13F
LIMON          MOSUNNY   51  34  52 S20G29    30.14F
MONUMENT HILL  SUNNY     45  32  61 S20       30.11F
TRINIDAD       MOSUNNY   50  34  54 VRB5      30.17F
$$

COZ042>045-048>051-090-091-172000-
...NORTHEAST COLORADO...

CITY           SKY/WX    TMP DP  RH WIND       PRES   REMARKS
GREELEY ARPT   SUNNY     55  32  41 NE3       30.07F
AKRON          MOSUNNY   57  35  43 S21G38    30.08F
BURLINGTON     CLOUDY    44  36  73 S20       30.19F
WRAY           CLOUDY    49  36  61 SE16      30.16F
STERLING       MOSUNNY   59  43  55 S12G24    30.06F
HOLYOKE        CLOUDY    45  34  65 SE15G22   30.17F
FORT MORGAN    SUNNY     61  25  25 SW9       30.07S
$$

COZ086-089-092>099-172000-
...SOUTHEAST COLORADO...

CITY           SKY/WX    TMP DP  RH WIND       PRES   REMARKS
PUEBLO         PTSUNNY   52  35  52 VRB5      30.15F
LA JUNTA       PTSUNNY   52  38  58 S15       30.18F
LAMAR          CLOUDY    50  40  68 S7        30.19F
SPRINGFIELD      N/A     44  39  82 S14       30.22F
$$



USA.gov is the U.S. government's official web portal to all federal, state and local government web resources and services.